This demonstration page uses our WeatherBlox Daily Observations layout. Learn more.

Left ArrowRight Arrow

Hourly Observations for November 30, 2021

Temp ( °F °C ) Dew Point ( °F °C ) Humidity (%) Winds ( mph kmh ) Pressure ( in mb ) Visibility ( mi km ) Precip ( " mm )
12:15 am 00:15 Clear 37 3 32 undefined 81 81 NW 5 7 30.06 1018 10 16 N/A
12:35 am 00:35 Clear 36 2 32 undefined 87 87 WNW 5 7 30.07 1018 10 16 N/A
12:55 am 00:55 Clear 36 2 32 undefined 87 87 WNW 5 7 30.07 1018 10 16 N/A
1:15 am 01:15 Clear 36 2 32 undefined 87 87 WNW 6 9 30.07 1018 10 16 N/A
1:35 am 01:35 Clear 36 2 30 -1 81 81 WNW 5 7 30.08 1019 10 16 N/A
1:55 am 01:55 Clear 36 2 32 undefined 87 87 WNW 7 11 30.08 1019 10 16 N/A
2:15 am 02:15 Partly Cloudy 36 2 30 -1 81 81 WNW 8 13 30.10 1019 10 16 N/A
2:35 am 02:35 Partly Cloudy 36 2 30 -1 81 81 NW 7 11 30.11 1020 10 16 N/A
2:55 am 02:55 Partly Cloudy 36 2 30 -1 81 81 WNW 7 11 30.11 1020 10 16 N/A
3:15 am 03:15 Clear 36 2 30 -1 81 81 WNW 8 13 30.12 1020 10 16 N/A
3:35 am 03:35 Clear 36 2 30 -1 81 81 WNW 9 15 30.12 1020 10 16 N/A
3:55 am 03:55 Clear 36 2 30 -1 81 81 NW 9 15 30.12 1020 10 16 N/A
4:15 am 04:15 Clear 36 2 30 -1 81 81 NNW 8 13 30.12 1020 10 16 N/A
4:35 am 04:35 Clear 36 2 30 -1 81 81 WNW 8 13 30.13 1020 10 16 N/A
4:55 am 04:55 Clear 36 2 28 -2 75 75 WNW 8 13 30.14 1021 10 16 N/A
5:15 am 05:15 Clear 36 2 30 -1 81 81 NW 10 17 30.16 1021 10 16 N/A
5:35 am 05:35 Clear 36 2 30 -1 81 81 NW 12 19 30.17 1022 10 16 N/A
5:55 am 05:55 Clear 36 2 28 -2 75 75 NW 10 17 30.18 1022 10 16 N/A
6:15 am 06:15 Clear 36 2 28 -2 75 75 NW 10 17 30.18 1022 10 16 N/A
6:35 am 06:35 Clear 36 2 28 -2 75 75 NW 9 15 30.19 1022 10 16 N/A
6:55 am 06:55 Clear 34 1 28 -2 81 81 NW 8 13 30.19 1022 10 16 N/A
7:15 am 07:15 Clear 34 1 28 -2 81 81 WNW 7 11 30.19 1022 10 16 N/A
7:35 am 07:35 Clear 32 undefined 27 -3 80 80 WNW 6 9 30.19 1022 10 16 N/A
7:55 am 07:55 Sunny 32 undefined 27 -3 80 80 WNW 6 9 30.20 1023 10 16 N/A
8:15 am 08:15 Sunny 32 undefined 27 -3 80 80 WNW 7 11 30.21 1023 10 16 N/A
8:35 am 08:35 Sunny 34 1 27 -3 75 75 WNW 6 9 30.20 1023 10 16 N/A
8:55 am 08:55 Sunny 34 1 27 -3 75 75 WNW 8 13 30.22 1023 10 16 N/A
9:15 am 09:15 Sunny 36 2 28 -2 75 75 WNW 8 13 30.22 1023 10 16 N/A
9:35 am 09:35 Sunny 36 2 28 -2 75 75 WNW 6 9 30.22 1023 10 16 N/A
9:55 am 09:55 Sunny 36 2 28 -2 75 75 NW 6 9 30.22 1023 10 16 N/A
10:15 am 10:15 Sunny 37 3 28 -2 70 70 NNW 6 9 30.21 1023 10 16 N/A
10:35 am 10:35 Sunny 37 3 28 -2 70 70 N 3 6 30.20 1023 10 16 N/A
10:55 am 10:55 Sunny 37 3 28 -2 70 70 N 5 7 30.20 1023 10 16 N/A
11:15 am 11:15 Sunny 39 4 28 -2 65 65 NNW 3 6 30.19 1022 10 16 N/A
11:35 am 11:35 Sunny 39 4 28 -2 65 65 N N/A 30.18 1022 10 16 N/A
11:55 am 11:55 Sunny 39 4 28 -2 65 65 N N/A 30.17 1022 10 16 N/A
12:15 pm 12:15 Sunny 39 4 28 -2 65 65 N N/A 30.16 1021 10 16 N/A
12:35 pm 12:35 Sunny 41 5 28 -2 61 61 N N/A 30.14 1021 10 16 N/A
12:55 pm 12:55 Sunny 41 5 27 -3 57 57 N N/A 30.14 1021 10 16 N/A
1:15 pm 13:15 Sunny 43 6 28 -2 57 57 N N/A 30.13 1020 10 16 N/A
1:35 pm 13:35 Sunny 43 6 28 -2 57 57 N N/A 30.13 1020 10 16 N/A
1:55 pm 13:55 Partly Cloudy 43 6 27 -3 53 53 SSW 3 6 30.12 1020 10 16 N/A
2:15 pm 14:15 Mostly Cloudy 43 6 23 -5 46 46 ESE 3 6 30.11 1020 10 16 N/A
2:35 pm 14:35 Mostly Cloudy 43 6 25 -4 49 49 SSE 5 7 30.10 1019 10 16 N/A
2:55 pm 14:55 Cloudy 43 6 27 -3 53 53 SE 6 9 30.09 1019 10 16 N/A
3:15 pm 15:15 Mostly Cloudy 43 6 27 -3 53 53 SE 7 11 30.07 1018 10 16 N/A
3:35 pm 15:35 Mostly Cloudy 43 6 27 -3 53 53 SE 7 11 30.06 1018 10 16 N/A
3:55 pm 15:55 Cloudy 41 5 27 -3 57 57 ESE 7 11 30.05 1018 10 16 N/A
4:15 pm 16:15 Cloudy 39 4 27 -3 61 61 SE 8 13 30.05 1018 10 16 N/A
4:35 pm 16:35 Mostly Cloudy 39 4 27 -3 61 61 SE 8 13 30.03 1017 10 16 N/A
4:55 pm 16:55 Cloudy 39 4 27 -3 61 61 ESE 7 11 30.03 1017 10 16 N/A
5:15 pm 17:15 Cloudy 39 4 27 -3 61 61 ESE 8 13 30.02 1017 10 16 N/A
5:35 pm 17:35 Cloudy 39 4 27 -3 61 61 SE 9 15 30.01 1016 10 16 N/A
5:55 pm 17:55 Cloudy 39 4 27 -3 61 61 SE 10 17 29.99 1015 10 16 N/A
6:15 pm 18:15 Mostly Cloudy 39 4 27 -3 61 61 SE 12 19 29.97 1015 10 16 N/A
6:35 pm 18:35 Mostly Cloudy 39 4 27 -3 61 61 SE 12 19 29.96 1014 10 16 N/A
6:55 pm 18:55 Mostly Cloudy 39 4 27 -3 61 61 SSE 9 15 29.96 1014 10 16 N/A
7:15 pm 19:15 Cloudy 39 4 27 -3 61 61 SSE 9 15 29.95 1014 10 16 N/A
7:35 pm 19:35 Cloudy with Drizzle 39 4 27 -3 61 61 SSE 12 19 29.95 1014 10 16 N/A
7:55 pm 19:55 Cloudy with Drizzle 39 4 27 -3 61 61 SSE 12 19 29.93 1013 10 16 N/A
8:15 pm 20:15 Mostly Cloudy 39 4 28 -2 65 65 SSE 13 20 29.91 1013 10 16 N/A
8:35 pm 20:35 Mostly Cloudy with Drizzle 39 4 28 -2 65 65 SSE 10 17 29.90 1012 10 16 N/A
8:55 pm 20:55 Cloudy with Light Rain 37 3 30 -1 75 75 SSE 9 15 29.89 1012 10 16 N/A
9:15 pm 21:15 Cloudy with Rain 37 3 30 -1 75 75 SSE 10 17 29.89 1012 10 16 N/A
9:35 pm 21:35 Cloudy with Light Rain 37 3 32 undefined 81 81 SSE 9 15 29.88 1012 7 11 0.01 0.25
9:55 pm 21:55 Cloudy with Light Rain 36 2 32 undefined 87 87 SE 7 11 29.88 1012 7 11 0.02 0.51
10:15 pm 22:15 Cloudy with Light Rain 36 2 34 1 93 93 SE 10 17 29.87 1011 10 16 0.01 0.25
10:35 pm 22:35 Cloudy with Drizzle 36 2 34 1 93 93 SE 8 13 29.85 1011 10 16 0.01 0.25
10:55 pm 22:55 Cloudy 36 2 34 1 93 93 SSE 7 11 29.84 1010 10 16 0.01 0.25
11:15 pm 23:15 Partly Cloudy 36 2 34 1 93 93 SSE 9 15 29.83 1010 10 16 N/A
11:35 pm 23:35 Partly Cloudy 34 1 34 1 100 100 S 7 11 29.83 1010 10 16 N/A
11:55 pm 23:55 Clear 34 1 32 undefined 93 93 SSE 7 11 29.83 1010 10 16 N/A

Powered by AerisWeather